Regional Weather Roundup
Issued by NWS

Home | Current Version | Previous Version | Text Only | Print | Product List | Glossary Off
Versions: 1 2 3 4 5 6 7 8 9 10 11 12 13 14 15 16 17 18 19 20 21 22 23 24 25 26 27 28 29 30 31 32 33 34 35 36 37 38 39 40 41 42 43 44 45 46 47 48 49 50

832
ASUS44 KMEG 061300
RWRTN
TENNESSEE HOURLY STATE WEATHER ROUNDUP
NATIONAL WEATHER SERVICE MEMPHIS TN
800 AM CDT FRI MAY 06 2016

TNZ002-004-019-021-049-052-054-088>092-061400-
WEST TENNESSEE

CITY           SKY/WX    TMP DP  RH WIND       PRES   REMARKS
MEMPHIS INTL   SUNNY     59  50  72 NW5       30.09R
NWS MEMPHIS      N/A     54 N/A N/A MISG        N/A
JACKSON        SUNNY     55  48  77 NW8       30.09R
DYERSBURG      SUNNY     54  46  76 W5        30.09R
UNION CITY     SUNNY     54  48  82 CALM      30.07R
LEXINGTON      SUNNY     50  46  87 CALM      30.06R
$$

TNZ008-025-027-028-033-062-065-066-061400-
NORTH MIDDLE TENNESSEE

CITY           SKY/WX    TMP DP  RH WIND       PRES   REMARKS
NASHVILLE      MOSUNNY   55  44  66 NW7       30.04R
CLARKSVILLE    SUNNY     53  47  79 NW7       30.05R
COOKEVILLE     SUNNY     50  46  87 NW3       29.99R
CROSSVILLE     MOSUNNY   51  44  77 N9        29.98R
$$

TNZ061-075-076-078-094-096-097-061400-
SOUTH MIDDLE TENNESSEE

CITY           SKY/WX    TMP DP  RH WIND       PRES   REMARKS
TULLAHOMA      SUNNY     48  48 100 NW3       30.03R
WINCHESTER     SUNNY     48  45  87 CALM      30.02R
MCMINNVILLE    SUNNY     48  48 100 SW5       30.01R
COLUMBIA       SUNNY    N/A N/A N/A CALM      30.04R
SHELBYVILLE    SUNNY     52  48  87 W3        30.04R
$$

TNZ017-018-042-046-047-061400-
NORTHEAST TENNESSEE

CITY           SKY/WX    TMP DP  RH WIND       PRES   REMARKS
TRI CITIES     PTSUNNY   52  44  74 W9        29.89R
$$

TNZ012-013-036-069-073-074-061400-
CENTRAL EAST TENNESSEE

CITY           SKY/WX    TMP DP  RH WIND       PRES   REMARKS
KNOXVILLE      MOSUNNY   51  46  83 SW5       29.96R
OAK RIDGE      SUNNY     52  44  74 S3        29.97R
GATLINBURG     SUNNY     52  45  76 SW6       29.94S
$$

TNZ083-085-099-061400-
SOUTHEAST TENNESSEE

CITY           SKY/WX    TMP DP  RH WIND       PRES   REMARKS
CHATTANOOGA    MOSUNNY   56  46  69 VRB3      29.98R
$$

SKY/WX REPORTED AS FAIR MEANS FEW OR NO CLOUDS BELOW
12 THOUSAND FEET.





USA.gov is the U.S. government's official web portal to all federal, state and local government web resources and services.